Previsão horária em Abin

Hoje, 16 Maio, Domingo

Tempo Temperatura Precipitação Vento Pressão Humidade
00:00 +12°C° 0 mm 2 m/s 741 mmHg 95%
01:00 +12°C° 0 mm 2 m/s 742 mmHg 95%
02:00 +12°C° 0 mm 2 m/s 742 mmHg 94%
03:00 +12°C° 0 mm 2 m/s 742 mmHg 94%
04:00 +13°C° 0 mm 2 m/s 742 mmHg 94%
05:00 +13°C° 0 mm 2 m/s 742 mmHg 94%
06:00 +14°C° 0 mm 2 m/s 742 mmHg 89%
07:00 +16°C° 0 mm 2 m/s 742 mmHg 83%
08:00 +17°C° 0 mm 2 m/s 743 mmHg 80%
09:00 +18°C° 0.2 mm 3 m/s 743 mmHg 75%
10:00 +19°C° 0.2 mm 3 m/s 743 mmHg 71%
11:00 +20°C° 0.2 mm 3 m/s 743 mmHg 67%
12:00 +21°C° 0.1 mm 3 m/s 743 mmHg 63%
13:00 +22°C° 0.1 mm 3 m/s 743 mmHg 59%
14:00 +22°C° 0.1 mm 4 m/s 743 mmHg 55%
15:00 +22°C° 0 mm 3 m/s 743 mmHg 60%
16:00 +21°C° 0 mm 2 m/s 743 mmHg 65%
17:00 +21°C° 0 mm 2 m/s 742 mmHg 70%
18:00 +20°C° 0 mm 2 m/s 743 mmHg 73%
19:00 +19°C° 0 mm 1 m/s 743 mmHg 76%
20:00 +18°C° 0 mm 1 m/s 743 mmHg 78%
21:00 +16°C° 0 mm 1 m/s 743 mmHg 80%
22:00 +15°C° 0 mm 1 m/s 743 mmHg 82%
23:00 +15°C° 0 mm 2 m/s 742 mmHg 84%

Amanhã, 17 Maio, Segunda-feira

Tempo Temperatura Precipitação Vento Pressão Humidade
00:00 +15°C° 0 mm 2 m/s 742 mmHg 85%
01:00 +14°C° 0 mm 2 m/s 742 mmHg 86%
02:00 +13°C° 0 mm 3 m/s 742 mmHg 87%
03:00 +13°C° 0 mm 3 m/s 742 mmHg 87%
04:00 +14°C° 0 mm 3 m/s 742 mmHg 87%
05:00 +14°C° 0 mm 4 m/s 742 mmHg 87%
06:00 +17°C° 0 mm 4 m/s 742 mmHg 83%
07:00 +19°C° 0 mm 5 m/s 741 mmHg 79%
08:00 +21°C° 0 mm 6 m/s 741 mmHg 75%
09:00 +22°C° 0 mm 6 m/s 741 mmHg 71%
10:00 +23°C° 0 mm 6 m/s 741 mmHg 66%
11:00 +26°C° 0 mm 7 m/s 741 mmHg 62%
12:00 +26°C° 0 mm 6 m/s 740 mmHg 61%
13:00 +27°C° 0 mm 6 m/s 740 mmHg 60%
14:00 +27°C° 0 mm 6 m/s 740 mmHg 59%
15:00 +26°C° 0 mm 6 m/s 739 mmHg 62%
16:00 +24°C° 0 mm 6 m/s 739 mmHg 64%
17:00 +23°C° 0 mm 6 m/s 739 mmHg 66%
18:00 +22°C° 0 mm 6 m/s 739 mmHg 69%
19:00 +21°C° 0 mm 6 m/s 739 mmHg 72%
20:00 +20°C° 0 mm 6 m/s 739 mmHg 74%
21:00 +19°C° 0 mm 5 m/s 739 mmHg 76%
22:00 +19°C° 0 mm 5 m/s 738 mmHg 78%
23:00 +17°C° 0 mm 5 m/s 738 mmHg 79%

Depois de amanhã, 18 Maio, Terça-feira

Tempo Temperatura Precipitação Vento Pressão Humidade
00:00 +16°C° 0 mm 5 m/s 738 mmHg 82%
01:00 +17°C° 0 mm 4 m/s 738 mmHg 85%
02:00 +15°C° 0 mm 4 m/s 738 mmHg 88%
03:00 +15°C° 0 mm 4 m/s 738 mmHg 88%
04:00 +15°C° 0 mm 4 m/s 738 mmHg 88%
05:00 +15°C° 0 mm 4 m/s 738 mmHg 88%
06:00 +18°C° 0 mm 4 m/s 738 mmHg 85%
07:00 +19°C° 0 mm 5 m/s 738 mmHg 81%
08:00 +21°C° 0 mm 5 m/s 738 mmHg 78%
09:00 +22°C° 0 mm 5 m/s 739 mmHg 74%
10:00 +23°C° 0 mm 5 m/s 739 mmHg 70%
11:00 +24°C° 0 mm 6 m/s 739 mmHg 66%
12:00 +25°C° 0 mm 5 m/s 739 mmHg 64%
13:00 +26°C° 0 mm 5 m/s 738 mmHg 63%
14:00 +26°C° 0 mm 5 m/s 738 mmHg 61%
15:00 +26°C° 0.2 mm 4 m/s 738 mmHg 64%
16:00 +25°C° 0.2 mm 3 m/s 738 mmHg 68%
17:00 +24°C° 0.2 mm 3 m/s 737 mmHg 71%
18:00 +22°C° 0.1 mm 3 m/s 737 mmHg 75%
19:00 +20°C° 0.1 mm 3 m/s 737 mmHg 79%
20:00 +19°C° 0.1 mm 4 m/s 737 mmHg 83%
21:00 +18°C° 0.1 mm 3 m/s 737 mmHg 87%
22:00 +17°C° 0.1 mm 2 m/s 737 mmHg 90%
23:00 +16°C° 0.1 mm 2 m/s 737 mmHg 93%

19 Maio, Quarta-feira

Tempo Temperatura Precipitação Vento Pressão Humidade
00:00 +16°C° 0 mm 2 m/s 737 mmHg 93%
01:00 +16°C° 0 mm 2 m/s 737 mmHg 93%
02:00 +15°C° 0 mm 2 m/s 737 mmHg 93%
03:00 +16°C° 0.1 mm 2 m/s 737 mmHg 93%
04:00 +16°C° 0.1 mm 3 m/s 737 mmHg 93%
05:00 +16°C° 0.1 mm 3 m/s 737 mmHg 93%
06:00 +20°C° 0 mm 5 m/s 737 mmHg 72%
07:00 +20°C° 0 mm 5 m/s 737 mmHg 74%
08:00 +19°C° 0 mm 5 m/s 736 mmHg 77%
09:00 +20°C° 0.2 mm 5 m/s 737 mmHg 77%
10:00 +20°C° 0.2 mm 5 m/s 737 mmHg 73%
11:00 +21°C° 0.2 mm 5 m/s 738 mmHg 69%
12:00 +21°C° 0.4 mm 5 m/s 736 mmHg 68%
13:00 +20°C° 0.4 mm 5 m/s 736 mmHg 72%
14:00 +19°C° 0.4 mm 5 m/s 736 mmHg 76%
15:00 +19°C° 0.6 mm 5 m/s 737 mmHg 78%
16:00 +19°C° 0.6 mm 4 m/s 737 mmHg 79%
17:00 +19°C° 0.6 mm 3 m/s 737 mmHg 80%
18:00 +17°C° 1 mm 3 m/s 737 mmHg 85%
19:00 +16°C° 1 mm 2 m/s 737 mmHg 90%
20:00 +14°C° 1 mm 1 m/s 737 mmHg 95%
21:00 +14°C° 0 mm 2 m/s 737 mmHg 95%
22:00 +13°C° 0 mm 2 m/s 737 mmHg 95%
23:00 +12°C° 0 mm 3 m/s 737 mmHg 96%

20 Maio, Quinta-feira

Tempo Temperatura Precipitação Vento Pressão Humidade
00:00 +11°C° 0 mm 3 m/s 737 mmHg 96%
01:00 +11°C° 0 mm 3 m/s 737 mmHg 96%
02:00 +11°C° 0 mm 3 m/s 737 mmHg 97%
03:00 +11°C° 0 mm 3 m/s 737 mmHg 97%
04:00 +11°C° 0 mm 3 m/s 737 mmHg 97%
05:00 +11°C° 0 mm 3 m/s 737 mmHg 97%
06:00 +12°C° 0 mm 4 m/s 737 mmHg 94%
07:00 +12°C° 0 mm 4 m/s 737 mmHg 92%
08:00 +12°C° 0 mm 5 m/s 738 mmHg 90%
09:00 +13°C° 0.2 mm 5 m/s 738 mmHg 88%
10:00 +14°C° 0.2 mm 6 m/s 738 mmHg 85%
11:00 +15°C° 0.2 mm 6 m/s 739 mmHg 82%
12:00 +15°C° 0.2 mm 6 m/s 739 mmHg 81%
13:00 +15°C° 0.2 mm 6 m/s 740 mmHg 80%
14:00 +15°C° 0.2 mm 6 m/s 740 mmHg 79%
15:00 +14°C° 0 mm 5 m/s 741 mmHg 80%
16:00 +14°C° 0 mm 5 m/s 741 mmHg 81%
17:00 +13°C° 0 mm 4 m/s 741 mmHg 82%
18:00 +13°C° 0 mm 4 m/s 742 mmHg 86%
19:00 +12°C° 0 mm 3 m/s 742 mmHg 90%
20:00 +11°C° 0 mm 3 m/s 742 mmHg 94%
21:00 +11°C° 0 mm 3 m/s 743 mmHg 93%
22:00 +10°C° 0 mm 3 m/s 743 mmHg 93%
23:00 +10°C° 0 mm 2 m/s 743 mmHg 93%

21 Maio, Sexta-feira

Tempo Temperatura Precipitação Vento Pressão Humidade
00:00 +10°C° 0 mm 2 m/s 743 mmHg 92%
01:00 +12°C° 0 mm 2 m/s 744 mmHg 90%
02:00 +12°C° 0 mm 2 m/s 744 mmHg 89%
03:00 +12°C° 0 mm 2 m/s 744 mmHg 89%
04:00 +12°C° 0 mm 2 m/s 744 mmHg 90%
05:00 +11°C° 0 mm 3 m/s 744 mmHg 90%
06:00 +12°C° 0.1 mm 3 m/s 744 mmHg 90%
07:00 +12°C° 0.1 mm 3 m/s 744 mmHg 91%
08:00 +12°C° 0.1 mm 3 m/s 744 mmHg 92%
09:00 +14°C° 0.2 mm 4 m/s 744 mmHg 86%
10:00 +16°C° 0.2 mm 6 m/s 744 mmHg 80%
11:00 +18°C° 0.2 mm 7 m/s 744 mmHg 75%
12:00 +18°C° 0.3 mm 7 m/s 743 mmHg 74%
13:00 +20°C° 0.3 mm 7 m/s 743 mmHg 73%
14:00 +20°C° 0.3 mm 7 m/s 742 mmHg 72%
15:00 +20°C° 0.3 mm 7 m/s 742 mmHg 74%
16:00 +20°C° 0.3 mm 8 m/s 741 mmHg 75%
17:00 +20°C° 0.3 mm 8 m/s 741 mmHg 77%
18:00 +18°C° 0.7 mm 7 m/s 741 mmHg 82%
19:00 +17°C° 0.7 mm 6 m/s 741 mmHg 87%
20:00 +16°C° 0.7 mm 5 m/s 741 mmHg 92%
21:00 +15°C° 0.2 mm 5 m/s 741 mmHg 93%
22:00 +14°C° 0.2 mm 4 m/s 742 mmHg 93%
23:00 +13°C° 0.2 mm 4 m/s 742 mmHg 94%
Mostrar mais

Necessitamos do seu Consentimento

A Meteoprog e os seus Fornecedores de Serviços podem armazenar e aceder a dados pessoais como cookies, identificadores do dispositivo ou outras tecnologias semelhantes existentes no seu dispositivo e processar estes dados para personalizar conteúdos e anúncios, assim como funcionalidades nas redes sociais e análise de tráfego.

  • Armazenar e/ou aceder a informações no seu dispositivo

    Os cookies, identificadores do dispositivo ou outras informações podem ser armazenados ou acedidos no seu dispositivo, para os fins acima indicados.

  • Anúncios e conteúdos personalizados, medição de anúncios e conteúdos, dados sobre o público-alvo e desenvolvimento de produtos

    Os anúncios e os conteúdos podem ser personalizados com base num perfil. Podem ser adicionados dados adicionais para uma maior personalização dos anúncios e dos conteúdos. A eficácia dos anúncios e dos conteúdos pode ser medida. Podem ser obtidas informações sobre o público que visualizou os anúncios e os conteúdos. Estes dados podem ser usados para desenvolver ou melhorar sistemas, softwares ou a experiência do utilizador.

Ao clicar em "Eu concordo”, permitirá o uso de cookies, identificadores do dispositivo e web beacons mencionados ou outras tecnologias semelhantes. As configurações do navegador do seu dispositivo podem ser alteradas.

Para certos fins, podem ser invocados interesses legítimos ao invés de consentimento. Pode ler mais informação sobre este assunto na nossa Política de Privacidade e Cookies.